ASTRA 1G
1 25071U 97076A   02364.00000000  .00000128  00000-0  10000-3 0  3864
2 25071   0.0122 319.8851 0002995  65.1991  92.3633  1.00273184 18633
INMARSAT 3-F5
1 25153U 98006B   03003.84310760  .00000140  00000-0  10000-3 0  8273
2 25153   0.4502 357.8981 0003573 278.4310 155.1584  1.00270046 18045
HOT BIRD 4
1 25237U 98013A   02364.09542247  .00000095  00000-0  10000-3 0  3237
2 25237   0.0611 171.7992 0008910  46.8775 287.0610  1.00272623 18039
NOAA 15
1 25338U 98030A   03006.95467822 +.00000154 +00000-0 +85042-4 0 09648
2 25338 098.5514 030.2585 0011478 081.2215 279.0264 14.24223176241737
RESURS O1-N4
1 25394U 98043A   03006.98143125 +.00000110 +00000-0 +66890-4 0 04371
2 25394 098.6369 085.6822 0000950 199.6174 160.4968 14.23859704233474
TMSAT
1 25396U 98043C   03006.94074496 -.00000043 +00000-0 +00000-0 0 08404
2 25396 098.6324 084.8651 0001689 244.8763 115.2241 14.23496366233467
TECHSAT 1B
1 25397U 98043D   03006.94604558 +.00000076 +00000-0 +52849-4 0 01290
2 25397 098.6287 083.8087 0000412 293.5565 066.5569 14.22948649233435
ASTRA 2A
1 25462U 98050A   02364.00000000  .00000158  00000-0  00000+0 0  5276
2 25462   0.0385 308.7109 0004824 280.8620 256.9180  1.00272094 15933
EUTELSAT W2
1 25491U 98056A   03006.83456598  .00000105  00000-0  00000+0 0  5560
2 25491   0.0400 108.2060 0003005 169.1480 145.0471  1.00271452 15629
HOT BIRD 5
1 25495U 98057A   03006.93467760  .00000157  00000-0  00000+0 0  4891
2 25495   0.0548 134.3929 0004140 158.4163 182.8275  1.00273279 15596
SEDSAT 1
1 25509U 98061B   03006.49874520  .00001126  00000-0  21331-3 0  7512
2 25509  31.4342  36.3881 0357961 286.7284  69.4355 14.27344138219154
PAN SAT
1 25520U 98064B   03006.50758187 +.00002462 +00000-0 +12312-3 0 06534
2 25520 028.4620 150.6222 0005653 246.0129 113.9874 15.13638432231059
ISS (ZARYA)
1 25544U 98067A   03007.49927083  .00023516  00000-0  30594-3 0  5540
2 25544  51.6345 107.4095 0005029   6.7976 176.5590 15.58637126235976
ORSTED
1 25635U 99008B   03007.07466526  .00000369  00000-0  10065-3 0  8007
2 25635  96.4467   3.4928 0146733 103.6495 258.1085 14.44756613203800
SUNSAT
1 25636U 99008C   03006.93145616 +.00000180 +00000-0 +54433-4 0 07183
2 25636 096.4494 002.1289 0150524 110.1588 251.5871 14.42911654203666
UOSAT 12
1 25693U 99021A   03007.48508961  .00000247  00000-0  55289-4 0  5911
2 25693  64.5591 139.5868 0016507 316.3224  43.6572 14.76333525200049
FENGYUN 1C
1 25730U 99025A   03006.98655456 -.00000037 +00000-0 +25304-5 0 07436
2 25730 098.6367 032.9820 0015227 122.4354 237.8293 14.11728325188623
ASTRA 1H
1 25785U 99033A   02364.00000000  .00000128  00000-0  10000-3 0  3670
2 25785   0.0122 319.8851 0002995  65.1991  92.3410  1.00273184 12991
TERRA
1 25994U 99068A   03007.28686002  .00000706  00000-0  16654-3 0  5751
2 25994  98.2058  84.1493 0000720 105.5844 254.5436 14.57161170162515
JAWSAT
1 26061U 00004A   03006.85172984  .00000532  00000-0  19488-3 0  7342
2 26061 100.2120  55.9804 0035405  40.9730 319.4101 14.37769857154392
OPAL
1 26063U 00004C   03006.68900165 +.00000115 +00000-0 +59966-4 0 06932
2 26063 100.2185 053.4760 0037421 047.4311 313.0020 14.35461182154248
ASUSAT
1 26065U 00004E   03006.85577612  .00000120  00000-0  61706-4 0  7022
2 26065 100.2171  53.8128 0037735  48.7608 311.6813 14.35487023154255
GOES 11
1 26352U 00022A   03007.37866427 -.00000039  00000-0  10000-3 0  9644
2 26352   0.0471 125.8253 0004470 146.1062 218.8100  1.00260539  9817
EUTELSAT W4
1 26369U 00028A   02365.18880209  .00000161  00000-0  00000+0 0  3348
2 26369   0.0264   6.8932 0003444 271.2514 285.3827  1.00274671  9557
FENGYUN 2B
1 26382U 00032A   03006.71877624 -.00000328  00000-0  00000+0 0  7639
2 26382   0.6753 286.7363 0000463 202.8587 339.6094  1.00269844  9281
EUTELSAT W1
1 26487U 00052A   03007.19086281  .00000070  00000-0  10000-3 0  3376
2 26487   0.0377 104.3908 0003911 179.9601 260.6221  1.00272899  8597
ASTRA 2B
1 26494U 00054A   02364.00000000  .00000158  00000-0  00000+0 0  2502
2 26494   0.0178 354.5658 0005000 302.8402 189.0339  1.00276704  8416
NOAA 16
1 26536U 00055A   03006.77863862  .00000281  00000-0  17808-3 0  1538
2 26536  98.8970 315.3914 0011430  68.0120 292.2294 14.11876520118114
SAUDISAT 1A
1 26545U 00057A   03006.60670719 +.00001322 +00000-0 +19426-3 0 03952
2 26545 064.5565 163.9533 0054728 245.5326 114.0018 14.78838702122871
UNISAT
1 26547U 00057C   03006.61417738  .00002040  00000-0  28255-3 0  4134
2 26547  64.5551 166.3233 0061892 247.9052 111.5481 14.79513407122839
TIUNGSAT 1
1 26548U 00057D   03006.89769777  .00001863  00000-0  25332-3 0  3985
2 26548  64.5560 156.4192 0048162 244.1564 115.4585 14.81091608123045
SAUDISAT 1B
1 26549U 00057E   03007.49171791  .00001032  00000-0  15913-3 0  6600
2 26549  64.5521 165.1328 0059143 245.5141 113.9791 14.77782639122922
AMSAT OSCAR 40
1 26609U 00072B   03007.26362170 -.00000106  00000-0  10000-3 0  3029
2 26609   7.9113  71.9734 7933625 130.5063 330.0224  1.25596642 10050
GOES 12
1 26871U 01031A   03006.35359486 -.00000086  00000-0  10000-3 0  7594
2 26871   0.4440  98.2902 0001133  55.9845 333.2835  1.00261262  5408
STARSHINE 3
1 26929U 01043A   03007.45439830  .00444553  93884-4  74587-3 0  6477
2 26929  67.0258 104.9708 0006158 318.7596  41.3125 16.02574386 72126
PCSAT
1 26931U 01043C   03006.97444126 +.00000177 +00000-0 +10239-3 0 03802
2 26931 067.0491 005.2683 0005402 255.8217 104.2284 14.29087821066268
SAPPHIRE
1 26932U 01043D   03006.95790943 +.00000096 +00000-0 +69985-4 0 03715
2 26932 067.0560 005.0272 0006619 238.4861 121.5593 14.29274765066283
ENVISAT
1 27386U 02009A   03007.48919183  .00000212  00000-0  94919-4 0  8226
2 27386  98.5497  76.6456 0000895  92.1784 267.9505 14.32251167 44720
IDEFIX/ARIANE 42P
1 27422U 02021B   03007.56045970  .00000213  00000-0  10369-3 0  2034
2 27422  98.7005  86.9432 0011703 272.4567  87.5274 14.27943669 35467
NOAA 17
1 27453U 02032A   03006.96389193 +.00000239 +00000-0 +12488-3 0 02617
2 27453 098.7634 078.3856 0012445 117.8815 242.3625 14.23264691027904
HOT BIRD 6
1 27499U 02038A   02364.09542247  .00000095  00000-0  10000-3 0   643
2 27499   0.0040   8.7196 0011180 225.2390 271.8102  1.00272778  1323
RUBIN 2
1 27605U 02058A   03007.37233678  .00000437  00000-0  91552-4 0   232
2 27605  64.5566 325.3722 0031529 129.3859 231.0032 14.71356337  2604
